iso_date,epoch_date,Year,Hour,Min,DOY,POS_DOY,Lat,Lon,BP,Ts,Ta,has_bp,has_ts,has_ta,BuoyID,Buoy_Type,Buoy_Owner,Logistics,Hemisphere
2019-10-05T03:21:01Z,1570245661,2019,3,21,278.1396,278.1396,85.00826,132.89559,-999.00,-0.94,-999.0,no,yes,no,300234065090840,GPS,TUT,MOSAiC,North
2019-10-05T03:29:57Z,1570246197,2019,3,30,278.1458,278.1458,85.00852,132.89248,-999.00,-0.93,-999.0,no,yes,no,300234065090840,GPS,TUT,MOSAiC,North
2019-10-05T04:30:00Z,1570249800,2019,4,30,278.1875,278.1875,85.01034,132.8751,-999.00,-1.02,-999.0,no,yes,no,300234065090840,GPS,TUT,MOSAiC,North
2019-10-05T05:30:02Z,1570253403,2019,5,30,278.2292,278.2292,-85.01176,132.86039,-999.00,-1.07,-999.0,no,yes,no,300234065090840,GPS,TUT,MOSAiC,North
2019-10-05T05:30:02Z,1570253403,2019,5,30,278.2292,278.2292,85.01176,132.86039,-999.00,-1.08,-999.0,no,yes,no,300234065090840,GPS,TUT,MOSAiC,North
2019-10-05T07:30:00Z,1570260600,2019,7,30,278.3125,278.3125,85.01318,132.83301,-999.00,-1.08,-999.0,no,yes,no,300234065090840,GPS,TUT,MOSAiC,North
2019-10-05T08:30:02Z,1570264203,2019,8,30,278.3542,278.3542,85.0138,132.81512,-999.00,-1.08,-999.0,no,yes,no,300234065090840,GPS,TUT,MOSAiC,North
2019-10-05T09:29:57Z,1570267797,2019,9,30,278.3958,278.3958,85.01446,132.79622,-999.00,-1.1,-999.0,no,yes,no,300234065090840,GPS,TUT,MOSAiC,North
2019-10-05T10:30:00Z,1570271400,2019,10,30,278.4375,278.4375,85.0155,132.77824,-999.00,-1.11,-999.0,no,yes,no,300234065090840,GPS,TUT,MOSAiC,North
2019-10-05T11:30:02Z,1570275003,2019,11,30,278.4792,278.4792,85.01684,132.76008,-999.00,-1.08,-999.0,no,yes,no,300234065090840,GPS,TUT,MOSAiC,North
2019-10-05T12:29:57Z,1570278597,2019,12,30,278.5208,278.5208,85.01834,132.74697,-999.00,-1.06,-999.0,no,yes,no,300234065090840,GPS,TUT,MOSAiC,North
2019-10-05T13:30:00Z,1570282200,2019,13,30,278.5625,278.5625,85.02042,132.73766,-999.00,-0.99,-999.0,no,yes,no,300234065090840,GPS,TUT,MOSAiC,North
2019-10-05T18:29:57Z,1570300197,2019,18,30,278.7708,278.7708,85.02964,132.75363,-999.00,-0.43,-999.0,no,yes,no,300234065090840,GPS,TUT,MOSAiC,North
2019-10-05T19:30:00Z,1570303800,2019,19,30,278.8125,278.8125,85.0304,132.76348,-999.00,-0.63,-999.0,no,yes,no,300234065090840,GPS,TUT,MOSAiC,North
2019-10-05T20:30:02Z,1570307403,2019,20,30,278.8542,278.8542,85.03064,132.76407,-999.00,-0.68,-999.0,no,yes,no,300234065090840,GPS,TUT,MOSAiC,North
2019-10-05T21:29:57Z,1570310997,2019,21,30,278.8958,278.8958,85.03067,132.76595,-999.00,-0.69,-999.0,no,yes,no,300234065090840,GPS,TUT,MOSAiC,North
2019-10-06T03:29:57Z,1570332597,2019,3,30,279.1458,279.1458,85.05383,133.08438,-999.00,-28.64,-999.0,no,yes,no,300234065090840,GPS,TUT,MOSAiC,North
2019-10-06T04:30:00Z,1570336200,2019,4,30,279.1875,279.1875,85.03607,134.08517,-999.00,-0.12,-999.0,no,yes,no,300234065090840,GPS,TUT,MOSAiC,North
2019-10-06T05:30:02Z,1570339803,2019,5,30,279.2292,279.2292,85.01865,134.63757,-999.00,-0.21,-999.0,no,yes,no,300234065090840,GPS,TUT,MOSAiC,North
2019-10-06T06:29:57Z,1570343397,2019,6,30,279.2708,279.2708,85.0148,134.65463,-999.00,-0.14,-999.0,no,yes,no,300234065090840,GPS,TUT,MOSAiC,North
2019-10-06T07:30:00Z,1570347000,2019,7,30,279.3125,279.3125,85.01364,134.65879,-999.00,-0.28,-999.0,no,yes,no,300234065090840,GPS,TUT,MOSAiC,North
2019-10-06T08:30:02Z,1570350603,2019,8,30,279.3542,279.3542,85.01248,134.66095,-999.00,-0.35,-999.0,no,yes,no,300234065090840,GPS,TUT,MOSAiC,North
2019-10-06T09:29:57Z,1570354197,2019,9,30,279.3958,279.3958,85.01138,134.66276,-999.00,-0.41,-999.0,no,yes,no,300234065090840,GPS,TUT,MOSAiC,North
2019-10-06T10:30:00Z,1570357800,2019,10,30,279.4375,279.4375,85.01066,134.66884,-999.00,-0.41,-999.0,no,yes,no,300234065090840,GPS,TUT,MOSAiC,North
2019-10-06T11:30:02Z,1570361403,2019,11,30,279.4792,279.4792,85.00989,134.67095,-999.00,-0.46,-999.0,no,yes,no,300234065090840,GPS,TUT,MOSAiC,North
2019-10-06T12:29:57Z,1570364997,2019,12,30,279.5208,279.5208,85.00942,134.67903,-999.00,-0.5,-999.0,no,yes,no,300234065090840,GPS,TUT,MOSAiC,North
2019-10-06T13:30:00Z,1570368600,2019,13,30,279.5625,279.5625,85.00908,134.68801,-999.00,-0.53,-999.0,no,yes,no,300234065090840,GPS,TUT,MOSAiC,North
2019-10-06T14:30:02Z,1570372203,2019,14,30,279.6042,279.6042,85.00915,134.69999,-999.00,-0.54,-999.0,no,yes,no,300234065090840,GPS,TUT,MOSAiC,North
2019-10-06T15:29:57Z,1570375797,2019,15,30,279.6458,279.6458,85.00893,134.71448,-999.00,-0.56,-999.0,no,yes,no,300234065090840,GPS,TUT,MOSAiC,North
2019-10-06T16:30:00Z,1570379400,2019,16,30,279.6875,279.6875,85.00895,134.73535,-999.00,-0.57,-999.0,no,yes,no,300234065090840,GPS,TUT,MOSAiC,North
2019-10-06T18:29:57Z,1570386597,2019,18,30,279.7708,279.7708,85.00797,134.78207,-999.00,-0.42,-999.0,no,yes,no,300234065090840,GPS,TUT,MOSAiC,North
2019-10-06T19:30:00Z,1570390200,2019,19,30,279.8125,279.8125,85.00696,134.81037,-999.00,-0.53,-999.0,no,yes,no,300234065090840,GPS,TUT,MOSAiC,North
2019-10-06T20:30:02Z,1570393803,2019,20,30,279.8542,279.8542,85.00525,134.83892,-999.00,-0.57,-999.0,no,yes,no,300234065090840,GPS,TUT,MOSAiC,North
2019-10-06T21:29:57Z,1570397397,2019,21,30,279.8958,279.8958,85.0039,134.86714,-999.00,-0.59,-999.0,no,yes,no,300234065090840,GPS,TUT,MOSAiC,North
2019-10-06T22:30:00Z,1570401000,2019,22,30,279.9375,279.9375,85.00227,134.88861,-999.00,-0.6,-999.0,no,yes,no,300234065090840,GPS,TUT,MOSAiC,North
2019-10-06T23:30:02Z,1570404603,2019,23,30,279.9792,279.9792,85.00056,134.90789,-999.00,-0.54,-999.0,no,yes,no,300234065090840,GPS,TUT,MOSAiC,North
2019-10-07T00:29:57Z,1570408197,2019,0,30,280.0208,280.0208,84.9993,134.93202,-999.00,0.12,-999.0,no,yes,no,300234065090840,GPS,TUT,MOSAiC,North
2019-10-07T01:30:00Z,1570411800,2019,1,30,280.0625,280.0625,84.99812,134.95864,-999.00,0.01,-999.0,no,yes,no,300234065090840,GPS,TUT,MOSAiC,North
2019-10-07T02:30:02Z,1570415403,2019,2,30,280.1042,280.1042,84.99727,134.98872,-999.00,-0.24,-999.0,no,yes,no,300234065090840,GPS,TUT,MOSAiC,North
2019-10-07T03:29:57Z,1570418997,2019,3,30,280.1458,280.1458,84.99622,135.02281,-999.00,-0.38,-999.0,no,yes,no,300234065090840,GPS,TUT,MOSAiC,North
2019-10-07T04:30:00Z,1570422600,2019,4,30,280.1875,280.1875,84.99498,135.059,-999.00,-0.43,-999.0,no,yes,no,300234065090840,GPS,TUT,MOSAiC,North
2019-10-07T05:30:02Z,1570426203,2019,5,30,280.2292,280.2292,84.99347,135.09798,-999.00,-0.45,-999.0,no,yes,no,300234065090840,GPS,TUT,MOSAiC,North
2019-10-07T06:29:57Z,1570429797,2019,6,30,280.2708,280.2708,84.99162,135.13603,-999.00,-0.46,-999.0,no,yes,no,300234065090840,GPS,TUT,MOSAiC,North
2019-10-07T07:31:00Z,1570433460,2019,7,31,280.3132,280.3132,85.31448,137.61176,-999.00,0.06,-999.0,no,yes,no,300234065090840,GPS,TUT,MOSAiC,North
2019-10-07T08:30:02Z,1570437003,2019,8,30,280.3542,280.3542,85.20961,133.39389,-999.00,1.04,-999.0,no,yes,no,300234065090840,GPS,TUT,MOSAiC,North
2019-10-07T09:29:57Z,1570440597,2019,9,30,280.3958,280.3958,84.98466,135.24538,-999.00,1.49,-999.0,no,yes,no,300234065090840,GPS,TUT,MOSAiC,North
2019-10-07T10:30:00Z,1570444200,2019,10,30,280.4375,280.4375,84.98284,135.27937,-999.00,0.56,-999.0,no,yes,no,300234065090840,GPS,TUT,MOSAiC,North
2019-10-07T11:30:02Z,1570447803,2019,11,30,280.4792,280.4792,84.95142,135.50332,-999.00,0.1,-999.0,no,yes,no,300234065090840,GPS,TUT,MOSAiC,North
2019-10-07T12:29:57Z,1570451397,2019,12,30,280.5208,280.5208,84.99823,136.09358,-999.00,-0.13,-999.0,no,yes,no,300234065090840,GPS,TUT,MOSAiC,North
2019-10-07T13:30:00Z,1570455000,2019,13,30,280.5625,280.5625,85.01526,136.15547,-999.00,-0.28,-999.0,no,yes,no,300234065090840,GPS,TUT,MOSAiC,North
2019-10-07T14:30:02Z,1570458603,2019,14,30,280.6042,280.6042,85.13159,136.48996,-999.00,-0.39,-999.0,no,yes,no,300234065090840,GPS,TUT,MOSAiC,North
2019-10-07T15:29:57Z,1570462197,2019,15,30,280.6458,280.6458,85.17146,135.473,-999.00,-0.47,-999.0,no,yes,no,300234065090840,GPS,TUT,MOSAiC,North
2019-10-07T16:30:00Z,1570465800,2019,16,30,280.6875,280.6875,85.16084,135.46771,-999.00,-0.51,-999.0,no,yes,no,300234065090840,GPS,TUT,MOSAiC,North
2019-10-07T17:30:02Z,1570469403,2019,17,30,280.7292,280.7292,85.15673,135.53412,-999.00,-0.15,-999.0,no,yes,no,300234065090840,GPS,TUT,MOSAiC,North
2019-10-07T18:29:57Z,1570472997,2019,18,30,280.7708,280.7708,85.15273,135.60006,-999.00,-0.58,-999.0,no,yes,no,300234065090840,GPS,TUT,MOSAiC,North
2019-10-07T19:30:00Z,1570476600,2019,19,30,280.8125,280.8125,85.14854,135.6656,-999.00,-0.6,-999.0,no,yes,no,300234065090840,GPS,TUT,MOSAiC,North
2019-10-07T20:30:02Z,1570480203,2019,20,30,280.8542,280.8542,85.14445,135.73149,-999.00,-0.61,-999.0,no,yes,no,300234065090840,GPS,TUT,MOSAiC,North
2019-10-07T21:29:57Z,1570483797,2019,21,30,280.8958,280.8958,85.14077,135.79811,-999.00,-0.62,-999.0,no,yes,no,300234065090840,GPS,TUT,MOSAiC,North
2019-10-07T22:30:00Z,1570487400,2019,22,30,280.9375,280.9375,85.13696,135.88116,-999.00,-0.62,-999.0,no,yes,no,300234065090840,GPS,TUT,MOSAiC,North
2019-10-07T23:30:02Z,1570491003,2019,23,30,280.9792,280.9792,85.12895,135.96433,-999.00,-0.61,-999.0,no,yes,no,300234065090840,GPS,TUT,MOSAiC,North
2019-10-08T00:29:57Z,1570494597,2019,0,30,281.0208,281.0208,85.11828,136.02351,-999.00,-0.56,-999.0,no,yes,no,300234065090840,GPS,TUT,MOSAiC,North
2019-10-08T01:30:00Z,1570498200,2019,1,30,281.0625,281.0625,85.11412,136.1317,-999.00,-0.53,-999.0,no,yes,no,300234065090840,GPS,TUT,MOSAiC,North
2019-10-08T02:30:02Z,1570501803,2019,2,30,281.1042,281.1042,85.10981,136.23713,-999.00,-0.47,-999.0,no,yes,no,300234065090840,GPS,TUT,MOSAiC,North
2019-10-08T03:29:57Z,1570505397,2019,3,30,281.1458,281.1458,85.10506,136.34291,-999.00,-0.42,-999.0,no,yes,no,300234065090840,GPS,TUT,MOSAiC,North
2019-10-08T04:30:00Z,1570509000,2019,4,30,281.1875,281.1875,85.10678,136.23707,-999.00,-0.28,-999.0,no,yes,no,300234065090840,GPS,TUT,MOSAiC,North
2019-10-08T05:30:02Z,1570512603,2019,5,30,281.2292,281.2292,85.10678,136.23707,-999.00,-0.28,-999.0,no,yes,no,300234065090840,GPS,TUT,MOSAiC,North
2019-10-08T06:29:57Z,1570516197,2019,6,30,281.2708,281.2708,85.10113,136.33174,-999.00,-0.35,-999.0,no,yes,no,300234065090840,GPS,TUT,MOSAiC,North
2019-10-08T07:30:00Z,1570519800,2019,7,30,281.3125,281.3125,85.09525,136.41705,-999.00,-0.34,-999.0,no,yes,no,300234065090840,GPS,TUT,MOSAiC,North
2019-10-08T08:30:02Z,1570523403,2019,8,30,281.3542,281.3542,85.08311,136.5473,-999.00,0.01,-999.0,no,yes,no,300234065090840,GPS,TUT,MOSAiC,North
2019-10-08T09:29:57Z,1570526997,2019,9,30,281.3958,281.3958,85.07679,136.59212,-999.00,-0.12,-999.0,no,yes,no,300234065090840,GPS,TUT,MOSAiC,North
2019-10-08T10:30:00Z,1570530600,2019,10,30,281.4375,281.4375,85.07066,136.61371,-999.00,-0.06,-999.0,no,yes,no,300234065090840,GPS,TUT,MOSAiC,North
2019-10-08T11:30:02Z,1570534203,2019,11,30,281.4792,281.4792,85.06448,136.62095,-999.00,-0.16,-999.0,no,yes,no,300234065090840,GPS,TUT,MOSAiC,North
2019-10-08T12:29:57Z,1570537797,2019,12,30,281.5208,281.5208,85.05813,136.62102,-999.00,-0.22,-999.0,no,yes,no,300234065090840,GPS,TUT,MOSAiC,North
2019-10-08T13:30:00Z,1570541400,2019,13,30,281.5625,281.5625,85.05259,136.6117,-999.00,-0.31,-999.0,no,yes,no,300234065090840,GPS,TUT,MOSAiC,North
2019-10-08T14:30:02Z,1570545003,2019,14,30,281.6042,281.6042,85.04777,136.60234,-999.00,-0.38,-999.0,no,yes,no,300234065090840,GPS,TUT,MOSAiC,North
2019-10-08T15:29:57Z,1570548597,2019,15,30,281.6458,281.6458,85.04777,136.60234,-999.00,-0.38,-999.0,no,yes,no,300234065090840,GPS,TUT,MOSAiC,North
2019-10-08T16:30:00Z,1570552200,2019,16,30,281.6875,281.6875,85.0434,136.59346,-999.00,-0.42,-999.0,no,yes,no,300234065090840,GPS,TUT,MOSAiC,North
2019-10-08T17:30:02Z,1570555803,2019,17,30,281.7292,281.7292,85.03957,136.58743,-999.00,-0.49,-999.0,no,yes,no,300234065090840,GPS,TUT,MOSAiC,North
2019-10-08T18:29:57Z,1570559397,2019,18,30,281.7708,281.7708,85.03622,136.58455,-999.00,-0.51,-999.0,no,yes,no,300234065090840,GPS,TUT,MOSAiC,North
2019-10-08T19:30:00Z,1570563000,2019,19,30,281.8125,281.8125,85.03267,136.58171,-999.00,-0.58,-999.0,no,yes,no,300234065090840,GPS,TUT,MOSAiC,North
2019-10-08T20:30:02Z,1570566603,2019,20,30,281.8542,281.8542,85.02881,136.57857,-999.00,-0.62,-999.0,no,yes,no,300234065090840,GPS,TUT,MOSAiC,North
2019-10-08T21:29:57Z,1570570197,2019,21,30,281.8958,281.8958,85.02482,136.57233,-999.00,-0.62,-999.0,no,yes,no,300234065090840,GPS,TUT,MOSAiC,North
2019-10-08T22:30:00Z,1570573800,2019,22,30,281.9375,281.9375,85.02111,136.55753,-999.00,-0.62,-999.0,no,yes,no,300234065090840,GPS,TUT,MOSAiC,North
2019-10-08T23:30:02Z,1570577403,2019,23,30,281.9792,281.9792,85.02612,136.48735,-999.00,-0.58,-999.0,no,yes,no,300234065090840,GPS,TUT,MOSAiC,North
2019-10-09T00:00:00Z,1570579200,2019,0,0,282.0,282.0,85.09115,136.54074,-999.00,-0.6,-999.0,no,yes,no,300234065090840,GPS,TUT,MOSAiC,North
2019-10-09T01:30:00Z,1570584600,2019,1,30,282.0625,282.0625,85.09042,136.52178,-999.00,-0.61,-999.0,no,yes,no,300234065090840,GPS,TUT,MOSAiC,North
2019-10-09T02:31:03Z,1570588263,2019,2,31,282.1049,282.1049,85.05292,139.0804,-999.00,0.03,-999.0,no,yes,no,300234065090840,GPS,TUT,MOSAiC,North
2019-10-09T03:31:58Z,1570591918,2019,3,32,282.1472,282.1472,84.89244,132.98633,-999.00,2.47,-999.0,no,yes,no,300234065090840,GPS,TUT,MOSAiC,North
2019-10-09T04:27:59Z,1570595279,2019,4,28,282.1861,282.1861,84.67025,135.54899,-999.00,1.62,-999.0,no,yes,no,300234065090840,GPS,TUT,MOSAiC,North
2019-10-09T05:30:02Z,1570599003,2019,5,30,282.2292,282.2292,84.67025,135.54874,-999.00,1.57,-999.0,no,yes,no,300234065090840,GPS,TUT,MOSAiC,North
2019-10-09T06:29:57Z,1570602597,2019,6,30,282.2708,282.2708,84.6699,135.54222,-999.00,0.58,-999.0,no,yes,no,300234065090840,GPS,TUT,MOSAiC,North
2019-10-09T07:30:00Z,1570606200,2019,7,30,282.3125,282.3125,84.6699,135.54222,-999.00,-8.1,-999.0,no,yes,no,300234065090840,GPS,TUT,MOSAiC,North
2019-10-09T08:30:02Z,1570609803,2019,8,30,282.3542,282.3542,84.66889,135.52858,-999.00,-0.13,-999.0,no,yes,no,300234065090840,GPS,TUT,MOSAiC,North
2019-10-09T09:29:57Z,1570613397,2019,9,30,282.3958,282.3958,84.66889,135.52858,-999.00,-0.28,-999.0,no,yes,no,300234065090840,GPS,TUT,MOSAiC,North
2019-10-09T10:30:00Z,1570617000,2019,10,30,282.4375,282.4375,84.66608,135.50548,-999.00,-0.38,-999.0,no,yes,no,300234065090840,GPS,TUT,MOSAiC,North
2019-10-09T11:30:02Z,1570620603,2019,11,30,282.4792,282.4792,84.66608,135.50547,-999.00,-0.46,-999.0,no,yes,no,300234065090840,GPS,TUT,MOSAiC,North
2019-10-09T12:29:57Z,1570624197,2019,12,30,282.5208,282.5208,84.66411,135.47686,-999.00,-0.5,-999.0,no,yes,no,300234065090840,GPS,TUT,MOSAiC,North
2019-10-09T13:30:00Z,1570627800,2019,13,30,282.5625,282.5625,84.66411,135.47686,-999.00,-0.56,-999.0,no,yes,no,300234065090840,GPS,TUT,MOSAiC,North
2019-10-09T14:30:02Z,1570631403,2019,14,30,282.6042,282.6042,84.6631,135.4544,-999.00,-0.61,-999.0,no,yes,no,300234065090840,GPS,TUT,MOSAiC,North
2019-10-09T16:00:02Z,1570636803,2019,16,0,282.6667,282.6667,84.66348,135.44351,-999.00,-0.66,-999.0,no,yes,no,300234065090840,GPS,TUT,MOSAiC,North
2019-10-09T16:30:00Z,1570638600,2019,16,30,282.6875,282.6875,84.66384,135.441,-999.00,-0.67,-999.0,no,yes,no,300234065090840,GPS,TUT,MOSAiC,North
2019-10-09T17:30:02Z,1570642203,2019,17,30,282.7292,282.7292,84.66483,135.43575,-999.00,-0.69,-999.0,no,yes,no,300234065090840,GPS,TUT,MOSAiC,North
2019-10-09T19:00:02Z,1570647603,2019,19,0,282.7917,282.7917,84.66665,135.42589,-999.00,-0.74,-999.0,no,yes,no,300234065090840,GPS,TUT,MOSAiC,North
2019-10-09T19:00:02Z,1570647603,2019,19,0,282.7917,282.7917,84.66665,135.42589,-999.00,-0.72,-999.0,no,yes,no,300234065090840,GPS,TUT,MOSAiC,North
2019-10-09T19:59:57Z,1570651197,2019,20,0,282.8333,282.8333,84.66793,135.41647,-999.00,-0.75,-999.0,no,yes,no,300234065090840,GPS,TUT,MOSAiC,North
2019-10-09T20:39:59Z,1570653599,2019,20,40,282.8611,282.8611,84.66793,135.41647,-999.00,-0.76,-999.0,no,yes,no,300234065090840,GPS,TUT,MOSAiC,North
2019-10-09T21:19:00Z,1570655940,2019,21,19,282.8882,282.8882,84.66932,135.39546,-999.00,-0.78,-999.0,no,yes,no,300234065090840,GPS,TUT,MOSAiC,North
2019-10-09T21:40:01Z,1570657202,2019,21,40,282.9028,282.9028,84.66966,135.38813,-999.00,-0.78,-999.0,no,yes,no,300234065090840,GPS,TUT,MOSAiC,North
2019-10-09T22:30:00Z,1570660200,2019,22,30,282.9375,282.9375,84.67035,135.36668,-999.00,-0.85,-999.0,no,yes,no,300234065090840,GPS,TUT,MOSAiC,North
2019-10-09T22:30:00Z,1570660200,2019,22,30,282.9375,282.9375,84.67035,135.36669,-999.00,-0.81,-999.0,no,yes,no,300234065090840,GPS,TUT,MOSAiC,North
2019-10-10T00:29:57Z,1570667397,2019,0,30,283.0208,283.0208,84.67181,135.30062,-999.00,-0.89,-999.0,no,yes,no,300234065090840,GPS,TUT,MOSAiC,North
2019-10-10T00:29:57Z,1570667397,2019,0,30,283.0208,283.0208,84.67181,135.30065,-999.00,-0.89,-999.0,no,yes,no,300234065090840,GPS,TUT,MOSAiC,North
2019-10-10T01:00:02Z,1570669203,2019,1,0,283.0417,283.0417,84.67807,134.9297,-999.00,-1.09,-999.0,no,yes,no,300234065090840,GPS,TUT,MOSAiC,North
2019-10-10T02:30:02Z,1570674603,2019,2,30,283.1042,283.1042,84.67412,135.22017,-999.00,-0.89,-999.0,no,yes,no,300234065090840,GPS,TUT,MOSAiC,North
2019-10-10T03:29:57Z,1570678197,2019,3,30,283.1458,283.1458,84.67559,135.1786,-999.00,-0.92,-999.0,no,yes,no,300234065090840,GPS,TUT,MOSAiC,North
2019-10-10T03:29:57Z,1570678197,2019,3,30,283.1458,283.1458,84.67559,135.17861,-999.00,-0.92,-999.0,no,yes,no,300234065090840,GPS,TUT,MOSAiC,North
2019-10-10T05:30:02Z,1570685403,2019,5,30,283.2292,283.2292,84.67916,135.09715,-999.00,-0.87,-999.0,no,yes,no,300234065090840,GPS,TUT,MOSAiC,North
2019-10-10T06:29:57Z,1570688997,2019,6,30,283.2708,283.2708,84.68051,135.06163,-999.00,-0.84,-999.0,no,yes,no,300234065090840,GPS,TUT,MOSAiC,North
2019-10-10T06:29:57Z,1570688997,2019,6,30,283.2708,283.2708,84.68051,135.06164,-999.00,-0.84,-999.0,no,yes,no,300234065090840,GPS,TUT,MOSAiC,North
2019-10-10T08:30:02Z,1570696203,2019,8,30,283.3542,283.3542,84.68112,135.00374,-999.00,-0.87,-999.0,no,yes,no,300234065090840,GPS,TUT,MOSAiC,North
2019-10-10T09:29:57Z,1570699797,2019,9,30,283.3958,283.3958,84.68054,134.97695,-999.00,-1.04,-999.0,no,yes,no,300234065090840,GPS,TUT,MOSAiC,North
2019-10-10T09:29:57Z,1570699797,2019,9,30,283.3958,283.3958,84.68055,134.97696,-999.00,-0.93,-999.0,no,yes,no,300234065090840,GPS,TUT,MOSAiC,North
2019-10-10T11:30:02Z,1570707003,2019,11,30,283.4792,283.4792,84.67807,134.9297,-999.00,-1.12,-999.0,no,yes,no,300234065090840,GPS,TUT,MOSAiC,North
2019-10-10T13:00:02Z,1570712403,2019,13,0,283.5417,283.5417,84.67576,134.88947,-999.00,-1.07,-999.0,no,yes,no,300234065090840,GPS,TUT,MOSAiC,North
2019-10-10T13:30:00Z,1570714200,2019,13,30,283.5625,283.5625,84.6751,134.87767,-999.00,-0.26,-999.0,no,yes,no,300234065090840,GPS,TUT,MOSAiC,North
2019-10-11T02:30:02Z,1570761003,2019,2,30,284.1042,284.1042,84.643,135.07062,-999.00,-1.31,-999.0,no,yes,no,300234065090840,GPS,TUT,MOSAiC,North
2019-10-11T03:29:57Z,1570764597,2019,3,30,284.1458,284.1458,84.643,135.07062,-999.00,-1.32,-999.0,no,yes,no,300234065090840,GPS,TUT,MOSAiC,North
2019-10-11T04:30:00Z,1570768200,2019,4,30,284.1875,284.1875,84.6362,135.10395,-999.00,-1.35,-999.0,no,yes,no,300234065090840,GPS,TUT,MOSAiC,North
2019-10-11T05:30:02Z,1570771803,2019,5,30,284.2292,284.2292,84.6362,-135.10395,-999.00,-1.36,-999.0,no,yes,no,300234065090840,GPS,TUT,MOSAiC,North
2019-10-11T06:29:57Z,1570775397,2019,6,30,284.2708,284.2708,84.63024,135.15506,-999.00,-1.36,-999.0,no,yes,no,300234065090840,GPS,TUT,MOSAiC,North
2019-10-11T07:30:00Z,1570779000,2019,7,30,284.3125,284.3125,84.63024,135.15507,-999.00,-1.35,-999.0,no,yes,no,300234065090840,GPS,TUT,MOSAiC,North
2019-10-11T08:30:02Z,1570782603,2019,8,30,284.3542,284.3542,84.62038,135.21734,-999.00,-1.34,-999.0,no,yes,no,300234065090840,GPS,TUT,MOSAiC,North
2019-10-11T09:29:57Z,1570786197,2019,9,30,284.3958,284.3958,84.62038,135.21734,-999.00,-1.31,-999.0,no,yes,no,300234065090840,GPS,TUT,MOSAiC,North
2019-10-11T10:30:00Z,1570789800,2019,10,30,284.4375,284.4375,84.61123,135.24216,-999.00,-1.29,-999.0,no,yes,no,300234065090840,GPS,TUT,MOSAiC,North
2019-10-11T11:30:02Z,1570793403,2019,11,30,284.4792,284.4792,84.61123,135.24216,-999.00,-1.27,-999.0,no,yes,no,300234065090840,GPS,TUT,MOSAiC,North
2019-10-11T12:29:57Z,1570796997,2019,12,30,284.5208,284.5208,84.60484,135.25152,-999.00,-1.23,-999.0,no,yes,no,300234065090840,GPS,TUT,MOSAiC,North
2019-10-11T13:30:00Z,1570800600,2019,13,30,284.5625,284.5625,84.60484,135.25152,-999.00,-1.19,-999.0,no,yes,no,300234065090840,GPS,TUT,MOSAiC,North
2019-10-12T02:30:02Z,1570847403,2019,2,30,285.1042,285.1042,84.60664,135.41591,-999.00,-0.98,-999.0,no,yes,no,300234065090840,GPS,TUT,MOSAiC,North
2019-10-12T03:29:57Z,1570850997,2019,3,30,285.1458,285.1458,84.60664,135.41591,-999.00,-0.98,-999.0,no,yes,no,300234065090840,GPS,TUT,MOSAiC,North
2019-10-12T04:30:00Z,1570854600,2019,4,30,285.1875,285.1875,84.60664,135.41592,-999.00,-0.94,-999.0,no,yes,no,300234065090840,GPS,TUT,MOSAiC,North
2019-10-12T05:30:02Z,1570858203,2019,5,30,285.2292,285.2292,84.61412,135.41754,-999.00,-0.92,-999.0,no,yes,no,300234065090840,GPS,TUT,MOSAiC,North
2019-10-12T06:29:57Z,1570861797,2019,6,30,285.2708,285.2708,84.61699,135.41174,-999.00,-0.89,-999.0,no,yes,no,300234065090840,GPS,TUT,MOSAiC,North
2019-10-12T07:30:00Z,1570865400,2019,7,30,285.3125,285.3125,84.61904,135.39963,-999.00,-0.87,-999.0,no,yes,no,300234065090840,GPS,TUT,MOSAiC,North
2019-10-12T08:30:02Z,1570869003,2019,8,30,285.3542,285.3542,84.62036,135.3803,-999.00,-0.85,-999.0,no,yes,no,300234065090840,GPS,TUT,MOSAiC,North
2019-10-12T09:29:57Z,1570872597,2019,9,30,285.3958,285.3958,84.62116,135.35314,-999.00,-0.83,-999.0,no,yes,no,300234065090840,GPS,TUT,MOSAiC,North
2019-10-12T10:30:00Z,1570876200,2019,10,30,285.4375,285.4375,84.62194,135.31683,-999.00,-0.83,-999.0,no,yes,no,300234065090840,GPS,TUT,MOSAiC,North
2019-10-12T11:30:02Z,1570879803,2019,11,30,285.4792,285.4792,84.62194,135.31681,-999.00,-0.89,-999.0,no,yes,no,300234065090840,GPS,TUT,MOSAiC,North
2019-10-12T12:29:57Z,1570883397,2019,12,30,285.5208,285.5208,84.62407,135.22515,-999.00,-0.95,-999.0,no,yes,no,300234065090840,GPS,TUT,MOSAiC,North
2019-10-12T13:30:00Z,1570887000,2019,13,30,285.5625,285.5625,84.62407,135.22513,-999.00,-1.04,-999.0,no,yes,no,300234065090840,GPS,TUT,MOSAiC,North
2019-10-13T02:30:02Z,1570933803,2019,2,30,286.1042,286.1042,84.62538,134.74996,-999.00,-1.31,-999.0,no,yes,no,300234065090840,GPS,TUT,MOSAiC,North
2019-10-13T03:29:57Z,1570937397,2019,3,30,286.1458,286.1458,84.62538,134.74995,-999.00,-1.45,-999.0,no,yes,no,300234065090840,GPS,TUT,MOSAiC,North
2019-10-13T04:30:00Z,1570941000,2019,4,30,286.1875,286.1875,84.62513,134.67885,-999.00,-1.36,-999.0,no,yes,no,300234065090840,GPS,TUT,MOSAiC,North
2019-10-13T05:30:02Z,1570944603,2019,5,30,286.2292,286.2292,84.62429,134.65148,-999.00,-1.66,-999.0,no,yes,no,300234065090840,GPS,TUT,MOSAiC,North
2019-10-13T06:29:57Z,1570948197,2019,6,30,286.2708,286.2708,84.62301,134.62641,-999.00,-1.66,-999.0,no,yes,no,300234065090840,GPS,TUT,MOSAiC,North
2019-10-13T07:30:00Z,1570951800,2019,7,30,286.3125,286.3125,84.62136,134.60069,-999.00,-1.59,-999.0,no,yes,no,300234065090840,GPS,TUT,MOSAiC,North
2019-10-13T07:59:57Z,1570953597,2019,8,0,286.3333,286.3333,84.61857,134.55825,-999.00,-1.69,-999.0,no,yes,no,300234065090840,GPS,TUT,MOSAiC,North
2019-10-13T09:29:57Z,1570958997,2019,9,30,286.3958,286.3958,84.61757,134.5429,-999.00,-1.74,-999.0,no,yes,no,300234065090840,GPS,TUT,MOSAiC,North
2019-10-13T10:30:00Z,1570962600,2019,10,30,286.4375,286.4375,84.6156,134.51005,-999.00,-1.82,-999.0,no,yes,no,300234065090840,GPS,TUT,MOSAiC,North
2019-10-13T11:30:02Z,1570966203,2019,11,30,286.4792,286.4792,84.6156,134.51004,-999.00,-1.88,-999.0,no,yes,no,300234065090840,GPS,TUT,MOSAiC,North
2019-10-13T12:29:57Z,1570969797,2019,12,30,286.5208,286.5208,84.6124,134.44335,-999.00,-1.91,-999.0,no,yes,no,300234065090840,GPS,TUT,MOSAiC,North
2019-10-13T13:30:00Z,1570973400,2019,13,30,286.5625,286.5625,84.6124,134.44334,-999.00,-1.93,-999.0,no,yes,no,300234065090840,GPS,TUT,MOSAiC,North
2019-10-13T14:30:02Z,1570977003,2019,14,30,286.6042,286.6042,84.6098,134.39604,-999.00,-1.89,-999.0,no,yes,no,300234065090840,GPS,TUT,MOSAiC,North